JBU1567 KHPN-KPBI

Flight info

Callsign JBU1567
Flight time 2h 21m
Altitude 36000
Route WHITE Q409 CRPLR EARZZ Q131 WAALT Y289 DULEE CLMNT2
Aircraft A320/M-SDE3FGHIRWY/LB1

Departure

Time 2026-05-06 13:02
Airport Westchester County Airport (KHPN)

Arrival

Time 2026-05-06 15:24
Airport Palm Beach International Airport (KPBI)
Time Latitude Longitude Altitude Speed Heading
2026-05-06 12:39 41.06875 -73.70523 410 ft 0 kts 60°
2026-05-06 12:46 41.06875 -73.70524 410 ft 0 kts 60°
2026-05-06 12:47 41.06874 -73.70524 410 ft 0 kts 60°
2026-05-06 12:54 41.06871 -73.70531 410 ft 2 kts 60°
2026-05-06 12:54 41.06861 -73.70551 410 ft 3 kts 39°
2026-05-06 12:54 41.06845 -73.70562 407 ft 3 kts 357°
2026-05-06 12:55 41.06826 -73.70557 408 ft 3 kts 332°
2026-05-06 12:55 41.06817 -73.70550 407 ft 1 kts 330°
2026-05-06 12:55 41.06815 -73.70549 407 ft 1 kts 330°
2026-05-06 12:58 41.06830 -73.70560 409 ft 5 kts 330°
2026-05-06 12:58 41.06878 -73.70597 408 ft 10 kts 329°
2026-05-06 12:58 41.06944 -73.70648 414 ft 12 kts 330°
2026-05-06 12:59 41.07022 -73.70708 410 ft 14 kts 330°
2026-05-06 12:59 41.07107 -73.70771 417 ft 14 kts 333°
2026-05-06 12:59 41.07183 -73.70818 418 ft 10 kts 336°
2026-05-06 12:59 41.07252 -73.70857 426 ft 12 kts 337°
2026-05-06 13:00 41.07329 -73.70909 429 ft 12 kts 332°
2026-05-06 13:00 41.07390 -73.70956 435 ft 8 kts 329°
2026-05-06 13:00 41.07432 -73.70989 425 ft 7 kts 329°
2026-05-06 13:00 41.07474 -73.71022 428 ft 7 kts 330°
2026-05-06 13:01 41.07520 -73.71057 447 ft 7 kts 326°
2026-05-06 13:01 41.07547 -73.71116 449 ft 8 kts 282°
2026-05-06 13:01 41.07553 -73.71170 450 ft 9 kts 276°
2026-05-06 13:01 41.07559 -73.71293 452 ft 11 kts 263°
2026-05-06 13:02 41.07491 -73.71280 448 ft 18 kts 150°
2026-05-06 13:02 41.07195 -73.71058 417 ft 86 kts 151°
2026-05-06 13:02 41.06503 -73.70527 409 ft 141 kts 150°
2026-05-06 13:02 41.05660 -73.69871 1070 ft 133 kts 154°
2026-05-06 13:03 41.05123 -73.69447 1525 ft 135 kts 160°
2026-05-06 13:03 41.04291 -73.68822 1917 ft 145 kts 165°
2026-05-06 13:03 41.03322 -73.68437 2145 ft 148 kts 192°
2026-05-06 13:03 41.02339 -73.68889 2392 ft 157 kts 212°
2026-05-06 13:04 41.01305 -73.69567 2615 ft 178 kts 210°
2026-05-06 13:04 41.00089 -73.70326 2901 ft 204 kts 209°
2026-05-06 13:04 40.98751 -73.71138 3374 ft 222 kts 207°
2026-05-06 13:04 40.97282 -73.71967 4151 ft 229 kts 205°
2026-05-06 13:05 40.95819 -73.72782 4961 ft 234 kts 205°
2026-05-06 13:05 40.94303 -73.73624 5785 ft 238 kts 205°
2026-05-06 13:05 40.92760 -73.74478 6591 ft 243 kts 205°
2026-05-06 13:05 40.91194 -73.75345 7401 ft 246 kts 205°
2026-05-06 13:06 40.89607 -73.76225 8265 ft 249 kts 205°
2026-05-06 13:06 40.88002 -73.77120 9176 ft 251 kts 205°
2026-05-06 13:06 40.86388 -73.78021 10063 ft 253 kts 206°
2026-05-06 13:06 40.84717 -73.78954 10426 ft 271 kts 205°
2026-05-06 13:07 40.82911 -73.79966 10624 ft 292 kts 205°
2026-05-06 13:07 40.81010 -73.81029 11157 ft 299 kts 205°
2026-05-06 13:07 40.79085 -73.82100 11803 ft 303 kts 205°
2026-05-06 13:07 40.77134 -73.83182 12461 ft 306 kts 205°
2026-05-06 13:08 40.75165 -73.84275 13128 ft 309 kts 206°
2026-05-06 13:08 40.73170 -73.85381 13742 ft 312 kts 206°
2026-05-06 13:08 40.71165 -73.86490 14307 ft 315 kts 206°
2026-05-06 13:08 40.69133 -73.87615 14847 ft 318 kts 206°
2026-05-06 13:09 40.67080 -73.88753 15415 ft 321 kts 206°
2026-05-06 13:09 40.65010 -73.89901 15955 ft 325 kts 206°
2026-05-06 13:09 40.62914 -73.91062 16480 ft 328 kts 206°
2026-05-06 13:09 40.60800 -73.92233 16994 ft 332 kts 206°
2026-05-06 13:10 40.58658 -73.93417 17532 ft 335 kts 206°
2026-05-06 13:10 40.56493 -73.94612 18064 ft 339 kts 206°
2026-05-06 13:10 40.54307 -73.95812 18528 ft 343 kts 206°
2026-05-06 13:10 40.52099 -73.97025 18985 ft 346 kts 206°
2026-05-06 13:11 40.49866 -73.98252 19448 ft 350 kts 207°
2026-05-06 13:11 40.47611 -73.99492 19899 ft 353 kts 207°
2026-05-06 13:11 40.45330 -74.00747 20352 ft 357 kts 207°
2026-05-06 13:11 40.43027 -74.02017 20788 ft 361 kts 207°
2026-05-06 13:12 40.40704 -74.03298 21212 ft 364 kts 207°
2026-05-06 13:12 40.38355 -74.04589 21632 ft 368 kts 207°
2026-05-06 13:12 40.35985 -74.05890 22054 ft 371 kts 207°
2026-05-06 13:12 40.33627 -74.07179 22470 ft 374 kts 207°
2026-05-06 13:13 40.31179 -74.08515 22887 ft 377 kts 207°
2026-05-06 13:13 40.28781 -74.09825 23287 ft 381 kts 207°
2026-05-06 13:13 40.26293 -74.11185 23677 ft 383 kts 208°
2026-05-06 13:13 40.23824 -74.12534 24039 ft 386 kts 208°
2026-05-06 13:14 40.21374 -74.13872 24410 ft 387 kts 208°
2026-05-06 13:14 40.18891 -74.15228 24772 ft 389 kts 208°
2026-05-06 13:14 40.16376 -74.16598 25138 ft 391 kts 208°
2026-05-06 13:14 40.13859 -74.17969 25497 ft 393 kts 208°
2026-05-06 13:15 40.11329 -74.19346 25855 ft 395 kts 208°
2026-05-06 13:15 40.08781 -74.20733 26203 ft 397 kts 208°
2026-05-06 13:15 40.06224 -74.22122 26548 ft 399 kts 208°
2026-05-06 13:15 40.03650 -74.23517 26888 ft 401 kts 208°
2026-05-06 13:16 40.01101 -74.25000 27222 ft 400 kts 214°
2026-05-06 13:16 39.98768 -74.26937 27556 ft 396 kts 221°
2026-05-06 13:16 39.97297 -74.28349 27775 ft 397 kts 221°
2026-05-06 13:16 39.97030 -74.28604 27815 ft 398 kts 221°
2026-05-06 13:17 39.94862 -74.30692 28115 ft 400 kts 221°
2026-05-06 13:17 39.92611 -74.32844 28483 ft 402 kts 221°
2026-05-06 13:17 39.90351 -74.34994 28829 ft 404 kts 221°
2026-05-06 13:18 39.88076 -74.37151 29176 ft 406 kts 222°
2026-05-06 13:18 39.85791 -74.39318 29519 ft 408 kts 222°
2026-05-06 13:18 39.83494 -74.41495 29851 ft 409 kts 222°
2026-05-06 13:18 39.81279 -74.43796 30236 ft 403 kts 229°
2026-05-06 13:19 39.79317 -74.46364 30662 ft 399 kts 232°
2026-05-06 13:19 39.77378 -74.48939 31097 ft 397 kts 232°
2026-05-06 13:19 39.75448 -74.51495 31540 ft 395 kts 232°
2026-05-06 13:19 39.73531 -74.54035 31970 ft 393 kts 233°
2026-05-06 13:20 39.71624 -74.56567 32417 ft 391 kts 233°
2026-05-06 13:20 39.69725 -74.59084 32854 ft 389 kts 234°
2026-05-06 13:20 39.67833 -74.61581 33287 ft 387 kts 234°
2026-05-06 13:20 39.65944 -74.64069 33728 ft 386 kts 234°
2026-05-06 13:21 39.64066 -74.66544 34119 ft 384 kts 235°
2026-05-06 13:21 39.62201 -74.69010 34461 ft 382 kts 236°
2026-05-06 13:21 39.60339 -74.71471 34789 ft 381 kts 236°
2026-05-06 13:21 39.58510 -74.73886 35103 ft 380 kts 236°
2026-05-06 13:22 39.56661 -74.76322 35417 ft 379 kts 236°
2026-05-06 13:22 39.54813 -74.78753 35722 ft 378 kts 237°
2026-05-06 13:22 39.52970 -74.81175 35921 ft 378 kts 237°
2026-05-06 13:23 39.49263 -74.86044 35962 ft 380 kts 237°
2026-05-06 13:23 39.45541 -74.90919 35966 ft 381 kts 237°
2026-05-06 13:24 39.41813 -74.95794 35967 ft 381 kts 237°
2026-05-06 13:24 39.38082 -75.00668 35968 ft 381 kts 237°
2026-05-06 13:25 39.34347 -75.05535 35967 ft 382 kts 237°
2026-05-06 13:25 39.30600 -75.10403 35965 ft 382 kts 237°
2026-05-06 13:26 39.26733 -75.15167 35967 ft 386 kts 234°
2026-05-06 13:26 39.22714 -75.19792 35961 ft 387 kts 233°
2026-05-06 13:27 39.18693 -75.24408 35942 ft 387 kts 234°
2026-05-06 13:27 39.14702 -75.29049 35942 ft 386 kts 234°
2026-05-06 13:28 39.10726 -75.33696 35942 ft 386 kts 234°
2026-05-06 13:28 39.06736 -75.38333 35941 ft 386 kts 234°
2026-05-06 13:29 39.02430 -75.42615 35940 ft 406 kts 221°
2026-05-06 13:29 38.99776 -75.44065 35940 ft 425 kts 210°
2026-05-06 13:29 38.96809 -75.44840 35936 ft 445 kts 199°
2026-05-06 13:30 38.90630 -75.45651 35933 ft 446 kts 199°
2026-05-06 13:30 38.84454 -75.46499 35955 ft 447 kts 199°
2026-05-06 13:31 38.78311 -75.47359 35953 ft 447 kts 199°
2026-05-06 13:31 38.72118 -75.48218 35959 ft 448 kts 199°
2026-05-06 13:32 38.65908 -75.49064 35970 ft 449 kts 199°
2026-05-06 13:32 38.59693 -75.49898 35961 ft 449 kts 199°
2026-05-06 13:33 38.53474 -75.50739 35968 ft 450 kts 199°
2026-05-06 13:33 38.47246 -75.51583 35988 ft 450 kts 199°
2026-05-06 13:34 38.41014 -75.52428 35981 ft 451 kts 199°
2026-05-06 13:34 38.34966 -75.53824 35977 ft 430 kts 212°
2026-05-06 13:34 38.32231 -75.55214 35977 ft 416 kts 219°
2026-05-06 13:35 38.29753 -75.56994 35977 ft 404 kts 226°
2026-05-06 13:35 38.25141 -75.61033 35981 ft 403 kts 227°
2026-05-06 13:36 38.20514 -75.65064 35981 ft 404 kts 227°
2026-05-06 13:36 38.15871 -75.69087 35986 ft 404 kts 227°
2026-05-06 13:37 38.11225 -75.73112 35998 ft 404 kts 227°
2026-05-06 13:37 38.06579 -75.77142 36001 ft 405 kts 227°
2026-05-06 13:38 38.01926 -75.81175 35994 ft 405 kts 227°
2026-05-06 13:38 37.97301 -75.85177 35999 ft 406 kts 227°
2026-05-06 13:39 37.92634 -75.89197 36006 ft 406 kts 227°
2026-05-06 13:39 37.87959 -75.93220 36005 ft 406 kts 227°
2026-05-06 13:40 37.83280 -75.97244 36013 ft 407 kts 227°
2026-05-06 13:40 37.78602 -76.01268 36010 ft 407 kts 227°
2026-05-06 13:41 37.73915 -76.05291 36007 ft 407 kts 227°
2026-05-06 13:41 37.69220 -76.09304 36010 ft 407 kts 227°
2026-05-06 13:42 37.64524 -76.13306 36009 ft 408 kts 227°
2026-05-06 13:42 37.59591 -76.16995 36014 ft 426 kts 216°
2026-05-06 13:43 37.53889 -76.19448 36012 ft 434 kts 211°
2026-05-06 13:43 37.48142 -76.21815 36018 ft 435 kts 211°
2026-05-06 13:44 37.42392 -76.24185 36017 ft 435 kts 212°
2026-05-06 13:44 37.36652 -76.26570 36020 ft 435 kts 212°
2026-05-06 13:45 37.30948 -76.28932 36024 ft 435 kts 212°
2026-05-06 13:45 37.22321 -76.32486 36017 ft 435 kts 211°
2026-05-06 13:46 37.16566 -76.34854 36011 ft 435 kts 211°
2026-05-06 13:46 37.10809 -76.37228 36011 ft 436 kts 211°
2026-05-06 13:47 37.05040 -76.39597 36009 ft 436 kts 211°
2026-05-06 13:47 36.99264 -76.41960 36008 ft 437 kts 211°
2026-05-06 13:48 36.93481 -76.44320 36058 ft 437 kts 211°
2026-05-06 13:48 36.87693 -76.46685 36035 ft 438 kts 211°
2026-05-06 13:49 36.81936 -76.49041 36036 ft 438 kts 211°
2026-05-06 13:49 36.76134 -76.51403 36036 ft 439 kts 211°
2026-05-06 13:50 36.70330 -76.53764 36048 ft 439 kts 211°
2026-05-06 13:50 36.64522 -76.56123 36051 ft 439 kts 211°
2026-05-06 13:51 36.58707 -76.58486 36055 ft 439 kts 211°
2026-05-06 13:51 36.52896 -76.60836 36052 ft 439 kts 211°
2026-05-06 13:52 36.47080 -76.63175 36049 ft 439 kts 211°
2026-05-06 13:52 36.41262 -76.65521 36048 ft 440 kts 211°
2026-05-06 13:53 36.35446 -76.67868 36055 ft 440 kts 212°
2026-05-06 13:53 36.30607 -76.69818 36058 ft 440 kts 212°
2026-05-06 13:54 36.24781 -76.72158 36064 ft 440 kts 212°
2026-05-06 13:54 36.18947 -76.74495 36070 ft 441 kts 211°
2026-05-06 13:55 36.13113 -76.76823 36072 ft 441 kts 211°
2026-05-06 13:55 36.07272 -76.79155 36073 ft 441 kts 211°
2026-05-06 13:56 36.01427 -76.81487 36073 ft 441 kts 211°
2026-05-06 13:56 35.95580 -76.83821 36068 ft 442 kts 211°
2026-05-06 13:57 35.89843 -76.86372 36061 ft 428 kts 220°
2026-05-06 13:57 35.84539 -76.89657 36058 ft 427 kts 220°
2026-05-06 13:58 35.79218 -76.92932 36058 ft 428 kts 220°
2026-05-06 13:58 35.73886 -76.96211 36070 ft 429 kts 220°
2026-05-06 13:59 35.68544 -76.99498 36076 ft 429 kts 220°
2026-05-06 13:59 35.63235 -77.02759 36080 ft 430 kts 219°
2026-05-06 14:00 35.57877 -77.06040 36081 ft 431 kts 219°
2026-05-06 14:00 35.52506 -77.09321 36082 ft 431 kts 219°
2026-05-06 14:01 35.47135 -77.12600 36079 ft 432 kts 219°
2026-05-06 14:01 35.41750 -77.15887 36069 ft 432 kts 219°
2026-05-06 14:02 35.36355 -77.19169 36069 ft 433 kts 219°
2026-05-06 14:02 35.30946 -77.22450 36080 ft 434 kts 218°
2026-05-06 14:03 35.25535 -77.25742 36081 ft 435 kts 218°
2026-05-06 14:03 35.20114 -77.29039 36086 ft 436 kts 218°
2026-05-06 14:04 35.14670 -77.32327 36087 ft 437 kts 218°
2026-05-06 14:04 35.09220 -77.35613 36091 ft 437 kts 218°
2026-05-06 14:05 35.03767 -77.38903 36085 ft 438 kts 218°
2026-05-06 14:05 34.98301 -77.42202 36083 ft 439 kts 218°
2026-05-06 14:06 34.92822 -77.45505 36086 ft 440 kts 218°
2026-05-06 14:06 34.87365 -77.48780 36080 ft 441 kts 217°
2026-05-06 14:07 34.81857 -77.52077 36078 ft 442 kts 217°
2026-05-06 14:07 34.76329 -77.55383 36078 ft 443 kts 217°
2026-05-06 14:08 34.70794 -77.58692 36079 ft 444 kts 217°
2026-05-06 14:08 34.65246 -77.62001 36078 ft 444 kts 217°
2026-05-06 14:09 34.59696 -77.65316 36086 ft 445 kts 217°
2026-05-06 14:09 34.53839 -77.68048 36089 ft 465 kts 202°
2026-05-06 14:10 34.47487 -77.69657 36090 ft 467 kts 202°
2026-05-06 14:10 34.41128 -77.71264 36093 ft 467 kts 202°
2026-05-06 14:11 34.34766 -77.72881 36093 ft 467 kts 202°
2026-05-06 14:11 34.28400 -77.74498 36091 ft 467 kts 202°
2026-05-06 14:12 34.22031 -77.76116 36093 ft 468 kts 202°
2026-05-06 14:12 34.15661 -77.77735 36095 ft 468 kts 202°
2026-05-06 14:13 34.09278 -77.79352 36097 ft 469 kts 202°
2026-05-06 14:13 34.02932 -77.80949 36104 ft 469 kts 202°
2026-05-06 14:14 33.96540 -77.82560 36109 ft 469 kts 202°
2026-05-06 14:14 33.90146 -77.84166 36108 ft 470 kts 202°
2026-05-06 14:15 33.83746 -77.85772 36105 ft 470 kts 202°
2026-05-06 14:15 33.77363 -77.87427 36106 ft 468 kts 204°
2026-05-06 14:16 33.71120 -77.89476 36105 ft 463 kts 207°
2026-05-06 14:16 33.64952 -77.91718 36104 ft 463 kts 207°
2026-05-06 14:17 33.58759 -77.93911 36109 ft 465 kts 206°
2026-05-06 14:17 33.52517 -77.96005 36112 ft 466 kts 206°
2026-05-06 14:18 33.46265 -77.98084 36116 ft 466 kts 206°
2026-05-06 14:18 33.40067 -78.00172 36117 ft 466 kts 206°
2026-05-06 14:19 33.33830 -78.02284 36119 ft 466 kts 206°
2026-05-06 14:19 33.27596 -78.04385 36122 ft 465 kts 206°
2026-05-06 14:20 33.21363 -78.06476 36123 ft 465 kts 206°
2026-05-06 14:20 33.15141 -78.08562 36118 ft 464 kts 206°
2026-05-06 14:21 33.08921 -78.10642 36113 ft 464 kts 206°
2026-05-06 14:21 33.02708 -78.12719 36121 ft 464 kts 206°
2026-05-06 14:22 32.96498 -78.14795 36113 ft 463 kts 206°
2026-05-06 14:22 32.90293 -78.16869 36123 ft 463 kts 206°
2026-05-06 14:23 32.84086 -78.18932 36125 ft 463 kts 206°
2026-05-06 14:23 32.77879 -78.20994 36131 ft 463 kts 206°
2026-05-06 14:24 32.71670 -78.23055 36133 ft 463 kts 206°
2026-05-06 14:24 32.65470 -78.25114 36134 ft 463 kts 206°
2026-05-06 14:25 32.59271 -78.27166 36137 ft 463 kts 205°
2026-05-06 14:25 32.53071 -78.29211 36136 ft 462 kts 205°
2026-05-06 14:26 32.46879 -78.31261 36139 ft 462 kts 205°
2026-05-06 14:26 32.40690 -78.33306 36141 ft 462 kts 205°
2026-05-06 14:27 32.34544 -78.35329 36141 ft 461 kts 205°
2026-05-06 14:27 32.28360 -78.37359 36139 ft 461 kts 205°
2026-05-06 14:28 32.22178 -78.39385 36140 ft 461 kts 204°
2026-05-06 14:28 32.16008 -78.41408 36139 ft 460 kts 204°
2026-05-06 14:29 32.09830 -78.43425 36137 ft 460 kts 204°
2026-05-06 14:29 32.03660 -78.45435 36139 ft 460 kts 204°
2026-05-06 14:30 31.97495 -78.47458 36137 ft 460 kts 204°
2026-05-06 14:30 31.91322 -78.49471 36142 ft 460 kts 204°
2026-05-06 14:31 31.85154 -78.51476 36144 ft 460 kts 204°
2026-05-06 14:31 31.78981 -78.53489 36139 ft 460 kts 204°
2026-05-06 14:32 31.72809 -78.55492 36142 ft 460 kts 204°
2026-05-06 14:32 31.66633 -78.57491 36144 ft 460 kts 204°
2026-05-06 14:33 31.60455 -78.59496 36140 ft 461 kts 204°
2026-05-06 14:33 31.54273 -78.61488 36136 ft 461 kts 204°
2026-05-06 14:34 31.48121 -78.63552 36134 ft 460 kts 205°
2026-05-06 14:34 31.41990 -78.65690 36134 ft 460 kts 206°
2026-05-06 14:35 31.35849 -78.67817 36138 ft 460 kts 205°
2026-05-06 14:35 31.29704 -78.69921 36143 ft 461 kts 205°
2026-05-06 14:36 31.23550 -78.72020 36143 ft 461 kts 205°
2026-05-06 14:36 31.17431 -78.74090 36136 ft 461 kts 205°
2026-05-06 14:37 31.11266 -78.76183 36138 ft 461 kts 206°
2026-05-06 14:37 31.05109 -78.78285 36145 ft 461 kts 206°
2026-05-06 14:38 30.98946 -78.80380 36139 ft 462 kts 206°
2026-05-06 14:38 30.92770 -78.82466 36141 ft 462 kts 206°
2026-05-06 14:39 30.86593 -78.84549 36141 ft 462 kts 206°
2026-05-06 14:39 30.80416 -78.86634 36138 ft 462 kts 206°
2026-05-06 14:40 30.74239 -78.88727 36137 ft 462 kts 206°
2026-05-06 14:40 30.68057 -78.90811 36140 ft 463 kts 206°
2026-05-06 14:41 30.61902 -78.92877 36141 ft 463 kts 206°
2026-05-06 14:41 30.55716 -78.94962 36141 ft 463 kts 206°
2026-05-06 14:42 30.49529 -78.97039 36141 ft 463 kts 206°
2026-05-06 14:42 30.43341 -78.99111 36141 ft 463 kts 206°
2026-05-06 14:43 30.37078 -79.00998 36142 ft 467 kts 202°
2026-05-06 14:43 30.30755 -79.02590 36142 ft 469 kts 201°
2026-05-06 14:44 30.25411 -79.03903 36146 ft 468 kts 201°
2026-05-06 14:45 30.14860 -79.06631 36152 ft 467 kts 202°
2026-05-06 14:45 30.08525 -79.08304 36149 ft 467 kts 202°
2026-05-06 14:46 30.03221 -79.09698 36150 ft 467 kts 202°
2026-05-06 14:46 29.96880 -79.11345 36147 ft 467 kts 201°
2026-05-06 14:47 29.90538 -79.12975 36145 ft 467 kts 201°
2026-05-06 14:47 29.84238 -79.14605 36144 ft 467 kts 202°
2026-05-06 14:48 29.77905 -79.16245 36146 ft 467 kts 201°
2026-05-06 14:48 29.71558 -79.17865 36142 ft 467 kts 201°
2026-05-06 14:49 29.65210 -79.19485 36143 ft 467 kts 201°
2026-05-06 14:49 29.58864 -79.21100 36144 ft 467 kts 201°
2026-05-06 14:50 29.52511 -79.22717 36143 ft 468 kts 201°
2026-05-06 14:50 29.46157 -79.24330 36144 ft 468 kts 201°
2026-05-06 14:51 29.39795 -79.25934 36147 ft 468 kts 201°
2026-05-06 14:51 29.33473 -79.27524 36146 ft 468 kts 201°
2026-05-06 14:52 29.27112 -79.29140 36144 ft 468 kts 201°
2026-05-06 14:52 29.20750 -79.30754 36145 ft 469 kts 201°
2026-05-06 14:53 29.14382 -79.32367 36139 ft 469 kts 201°
2026-05-06 14:53 29.11204 -79.33171 35969 ft 467 kts 201°
2026-05-06 14:53 29.08046 -79.33963 35556 ft 463 kts 200°
2026-05-06 14:53 29.04901 -79.34752 35126 ft 461 kts 200°
2026-05-06 14:54 29.01773 -79.35538 34679 ft 459 kts 200°
2026-05-06 14:54 28.98657 -79.36317 34231 ft 458 kts 200°
2026-05-06 14:54 28.95548 -79.37096 33736 ft 456 kts 200°
2026-05-06 14:54 28.92460 -79.37873 33268 ft 454 kts 200°
2026-05-06 14:55 28.89384 -79.38645 32826 ft 451 kts 200°
2026-05-06 14:55 28.86333 -79.39410 32395 ft 448 kts 200°
2026-05-06 14:55 28.83298 -79.40171 31976 ft 445 kts 200°
2026-05-06 14:55 28.80279 -79.40926 31562 ft 443 kts 200°
2026-05-06 14:56 28.77281 -79.41677 31160 ft 440 kts 200°
2026-05-06 14:56 28.74340 -79.42414 30773 ft 437 kts 200°
2026-05-06 14:56 28.71375 -79.43156 30389 ft 435 kts 200°
2026-05-06 14:56 28.68391 -79.43902 29972 ft 432 kts 200°
2026-05-06 14:57 28.65500 -79.44625 29559 ft 430 kts 200°
2026-05-06 14:57 28.62592 -79.45353 29157 ft 427 kts 199°
2026-05-06 14:57 28.59699 -79.46073 28772 ft 424 kts 199°
2026-05-06 14:57 28.56832 -79.46786 28400 ft 420 kts 199°
2026-05-06 14:58 28.53988 -79.47498 28027 ft 417 kts 199°
2026-05-06 14:58 28.51161 -79.48203 27657 ft 414 kts 199°
2026-05-06 14:58 28.48355 -79.48901 27283 ft 411 kts 199°
2026-05-06 14:58 28.45571 -79.49591 26907 ft 408 kts 198°
2026-05-06 14:59 28.42808 -79.50276 26537 ft 405 kts 198°
2026-05-06 14:59 28.40060 -79.50958 26172 ft 402 kts 198°
2026-05-06 14:59 28.37337 -79.51635 25809 ft 400 kts 198°
2026-05-06 14:59 28.34629 -79.52306 25451 ft 397 kts 198°
2026-05-06 15:00 28.31941 -79.52972 25086 ft 394 kts 198°
2026-05-06 15:00 28.29273 -79.53640 24726 ft 391 kts 198°
2026-05-06 15:00 28.26637 -79.54335 24372 ft 388 kts 199°
2026-05-06 15:00 28.24026 -79.55049 24019 ft 385 kts 199°
2026-05-06 15:01 28.21435 -79.55770 23666 ft 382 kts 199°
2026-05-06 15:01 28.18861 -79.56488 23247 ft 380 kts 199°
2026-05-06 15:01 28.16304 -79.57198 22836 ft 378 kts 199°
2026-05-06 15:01 28.13756 -79.57899 22423 ft 376 kts 198°
2026-05-06 15:02 28.11222 -79.58592 22017 ft 374 kts 198°
2026-05-06 15:02 28.08701 -79.59278 21619 ft 372 kts 198°
2026-05-06 15:02 28.06192 -79.59960 21224 ft 370 kts 198°
2026-05-06 15:02 28.03695 -79.60639 20844 ft 368 kts 198°
2026-05-06 15:03 28.01207 -79.61314 20460 ft 367 kts 198°
2026-05-06 15:03 27.98737 -79.61986 20092 ft 365 kts 198°
2026-05-06 15:03 27.96272 -79.62657 19726 ft 363 kts 198°
2026-05-06 15:03 27.93822 -79.63322 19364 ft 362 kts 198°
2026-05-06 15:04 27.91409 -79.63974 19019 ft 360 kts 198°
2026-05-06 15:04 27.88975 -79.64632 18675 ft 359 kts 198°
2026-05-06 15:04 27.86553 -79.65287 18327 ft 357 kts 198°
2026-05-06 15:04 27.84138 -79.65938 17942 ft 356 kts 198°
2026-05-06 15:05 27.81735 -79.66587 17563 ft 354 kts 198°
2026-05-06 15:05 27.79345 -79.67233 17201 ft 352 kts 197°
2026-05-06 15:05 27.76969 -79.67875 16990 ft 350 kts 197°
2026-05-06 15:05 27.74593 -79.68518 17015 ft 352 kts 197°
2026-05-06 15:06 27.72207 -79.69162 17018 ft 353 kts 197°
2026-05-06 15:06 27.69822 -79.69806 17013 ft 353 kts 197°
2026-05-06 15:06 27.67432 -79.70451 17014 ft 353 kts 197°
2026-05-06 15:06 27.65043 -79.71100 17015 ft 353 kts 197°
2026-05-06 15:07 27.62654 -79.71748 17012 ft 353 kts 197°
2026-05-06 15:07 27.60266 -79.72391 17012 ft 353 kts 197°
2026-05-06 15:07 27.57876 -79.73033 17012 ft 353 kts 197°
2026-05-06 15:07 27.55483 -79.73675 17012 ft 353 kts 197°
2026-05-06 15:08 27.53093 -79.74315 17012 ft 353 kts 197°
2026-05-06 15:08 27.50700 -79.74958 17012 ft 353 kts 197°
2026-05-06 15:08 27.48308 -79.75602 17012 ft 353 kts 197°
2026-05-06 15:08 27.45918 -79.76245 17013 ft 354 kts 197°
2026-05-06 15:09 27.43530 -79.76886 16853 ft 352 kts 197°
2026-05-06 15:09 27.41157 -79.77521 16493 ft 350 kts 197°
2026-05-06 15:09 27.38793 -79.78153 16153 ft 348 kts 197°
2026-05-06 15:09 27.36445 -79.78782 15820 ft 346 kts 196°
2026-05-06 15:10 27.34108 -79.79408 15491 ft 344 kts 196°
2026-05-06 15:10 27.31786 -79.80031 15168 ft 342 kts 196°
2026-05-06 15:10 27.29474 -79.80652 14852 ft 341 kts 196°
2026-05-06 15:10 27.27175 -79.81269 14545 ft 339 kts 195°
2026-05-06 15:11 27.24886 -79.81882 14236 ft 337 kts 195°
2026-05-06 15:11 27.22620 -79.82489 13740 ft 333 kts 195°
2026-05-06 15:11 27.20432 -79.83269 13127 ft 327 kts 207°
2026-05-06 15:11 27.18432 -79.84443 12527 ft 323 kts 210°
2026-05-06 15:12 27.16463 -79.85618 11955 ft 320 kts 210°
2026-05-06 15:12 27.14504 -79.86783 11399 ft 316 kts 210°
2026-05-06 15:12 27.12570 -79.87930 10856 ft 313 kts 209°
2026-05-06 15:12 27.10658 -79.89066 10324 ft 310 kts 209°
2026-05-06 15:13 27.08791 -79.90178 9781 ft 306 kts 209°
2026-05-06 15:13 27.06920 -79.91294 9214 ft 303 kts 209°
2026-05-06 15:13 27.05067 -79.92398 8655 ft 300 kts 209°
2026-05-06 15:13 27.03235 -79.93486 8117 ft 296 kts 209°
2026-05-06 15:14 27.01424 -79.94562 7578 ft 293 kts 208°
2026-05-06 15:14 26.99636 -79.95625 7067 ft 289 kts 208°
2026-05-06 15:14 26.97868 -79.96676 6563 ft 286 kts 208°
2026-05-06 15:14 26.96116 -79.97716 6035 ft 283 kts 208°
2026-05-06 15:15 26.94471 -79.98887 5500 ft 280 kts 218°
2026-05-06 15:15 26.92935 -80.00220 5223 ft 278 kts 218°
2026-05-06 15:15 26.91410 -80.01538 4952 ft 275 kts 218°
2026-05-06 15:15 26.89902 -80.02838 4669 ft 273 kts 218°
2026-05-06 15:16 26.88401 -80.04130 4363 ft 272 kts 217°
2026-05-06 15:16 26.86904 -80.05415 4082 ft 271 kts 218°
2026-05-06 15:16 26.85416 -80.06693 4003 ft 270 kts 217°
2026-05-06 15:16 26.83949 -80.07953 4005 ft 260 kts 217°
2026-05-06 15:17 26.82561 -80.09155 4006 ft 246 kts 218°
2026-05-06 15:17 26.81250 -80.10295 4012 ft 232 kts 218°
2026-05-06 15:17 26.80025 -80.11370 3951 ft 222 kts 220°
2026-05-06 15:17 26.78928 -80.12589 3611 ft 225 kts 231°
2026-05-06 15:18 26.78040 -80.14045 3427 ft 221 kts 241°
2026-05-06 15:18 26.77326 -80.15533 3201 ft 220 kts 242°
2026-05-06 15:18 26.76605 -80.17032 3038 ft 215 kts 242°
2026-05-06 15:18 26.75900 -80.18499 2810 ft 213 kts 242°
2026-05-06 15:19 26.75204 -80.19949 2659 ft 209 kts 241°
2026-05-06 15:19 26.74509 -80.21357 2532 ft 207 kts 240°
2026-05-06 15:19 26.73816 -80.22759 2342 ft 206 kts 240°
2026-05-06 15:19 26.72924 -80.23966 2212 ft 197 kts 212°
2026-05-06 15:20 26.71676 -80.24389 2132 ft 184 kts 176°
2026-05-06 15:20 26.70498 -80.24002 2098 ft 174 kts 146°
2026-05-06 15:20 26.69684 -80.23099 2022 ft 159 kts 124°
2026-05-06 15:20 26.69092 -80.22118 1908 ft 143 kts 117°
2026-05-06 15:21 26.68751 -80.21116 1819 ft 138 kts 101°
2026-05-06 15:21 26.68691 -80.20037 1752 ft 141 kts 89°
2026-05-06 15:21 26.68686 -80.18945 1742 ft 140 kts 91°
2026-05-06 15:21 26.68643 -80.17860 1587 ft 141 kts 93°
2026-05-06 15:22 26.68588 -80.16761 1358 ft 141 kts 93°
2026-05-06 15:22 26.68544 -80.15667 1097 ft 140 kts 94°
2026-05-06 15:22 26.68499 -80.14601 909 ft 136 kts 93°
2026-05-06 15:22 26.68448 -80.13544 649 ft 135 kts 92°
2026-05-06 15:23 26.68403 -80.12498 427 ft 135 kts 92°
2026-05-06 15:23 26.68357 -80.11468 217 ft 132 kts 93°
2026-05-06 15:23 26.68309 -80.10446 49 ft 129 kts 94°
2026-05-06 15:23 26.68266 -80.09570 27 ft 91 kts 92°
2026-05-06 15:24 26.68242 -80.09052 22 ft 49 kts 93°
2026-05-06 15:24 26.68254 -80.08849 24 ft 14 kts 39°
2026-05-06 15:24 26.68359 -80.08840 21 ft 16 kts
2026-05-06 15:24 26.68404 -80.08838 22 ft 5 kts
2026-05-06 15:25 26.68434 -80.08827 23 ft 4 kts 48°
2026-05-06 15:25 26.68442 -80.08792 23 ft 5 kts 70°
2026-05-06 15:25 26.68473 -80.08784 24 ft 6 kts 339°
2026-05-06 15:25 26.68504 -80.08819 26 ft 7 kts 312°
2026-05-06 15:26 26.68539 -80.08861 30 ft 7 kts 313°
2026-05-06 15:26 26.68552 -80.08877 27 ft 0 kts 312°